Location: Fernhill
(41.0167°S, 175.6333°E)
Time: 10:30:12
(UTC+00:00)

CZ-4B R/B - Pass Details

Date: 08 November 2025
Orbit: 699 x 798 km, 98.9° (Epoch: 11 December)

Event Time Altitude Azimuth Distance (km) Brightness Sun altitude
Rises 09:38:31 0° 160° (SSE) 3,226 7.2 -23.5°
Reaches altitude 10° 09:40:54 10° 153° (SSE) 2,309 6.3 -23.8°
Enters shadow 09:45:09 43° 102° (ESE) 1,084 4.0 -24.2°
